FREGAT R/B, 41555

Orbit data source: Space-Track

FREGAT R/B, 41555 is space debris in MEO originally from a launch on Sun, 29 May 2016 UTC launched from the Plesetsk Missile And Space Complex (PKMTR). Debris objects in space refer to the collection of defunct objects orbiting the Earth. Examples of debris include non-operational satellites, rocket bodies, and fragments generated from explosions, collisions, or faulty payload assembly.

Loading next visibility...
Identifier
41555, 2016-032B
Orbit
MEO
Country
Flag of CISCIS
Related business
Manufacturer
Lavochkin
Mission
Spacecraft
Bus & Motor
FREGAT, Unknown motor
Mass
1,000 kg wet, 1,000 kg dry
Launch date (UTC)
2016-05-29 (10 years ago)
Launch vehicle
Unknown
Launch site
Plesetsk Missile And Space Complex (PKMTR)
Object type
Payload
Rocket body
Debris
Shape & HBR
Cyl, 1.7 m
Radar Cross Section
8.354 m², Large (>1 m²)

Expand to show TLE details & history
Last TLE update: 2 days ago

TLE from 2 days ago
0 FREGAT R/B
1 41555U 16032B   26171.29751810  .00000058  00000-0  00000+0 0  9994
2 41555  63.7034 196.9947 0080822 118.7574 242.1073  2.08091473 76469
Epoch: 2026-06-20T07:08Z
TLE epoch observation values (Epoch: 2026-06-20T07:08:25.563Z)
Latitude
0.00002°
Longitude
-178.62203°
Altitude
19,637.55 km
Speed
3.907 km/s
True Right ascension
13h 07m 59s
True Declination
0° 00' 00"
Sunlit
Object was in daylight at epoch
Visualization orbit readout
Latitude
Unknown
Longitude
Unknown
Altitude
Unknown
Speed
Unknown
Apparent Right ascension
Unknown
Apparent Declination
Unknown
Sunlit
N/A
Visualization observer readout
Local Sidereal Time
21:24:10
Azimuth
Unknown
Elevation
Unknown
Doppler factor
Unknown
Orbital elements
Apogee altitude
19,746.846 km
Perigee altitude
19,327.937 km
Semi-major axis
25,915.528 km
Eccentricity
0.00808
Inclination
63.7034°
RAAN
196.9947°
Arg. of periapsis
118.7574°
True anomaly
241.29262°
Mean anomaly
242.1073°
Eccentric anomaly
241.69957°
Mean motion
0.52024 °/min
Orbital period
691.99 mins
BSTAR
0
Loading maneuver chart data...
Computing Atmospheric mass density...
Loading historical data...
Loading historical data...
Loading historical data...
Loading historical data...
Loading historical data...
Loading historical data...
Loading historical data...
Other satellites on launch #32 in the year 2016 (2016-05-29 UTC)

Documentation

Showing up to 5 results
|